Terminal Aerodrome Forecast
Issued by NWS

Home | Current Version | Previous Version | Text Only | Print | Product List | Glossary On
Versions: 1 2 3 4 5 6 7 8 9 10 11 12 13 14
000
FTUS45 KFGZ 111700
TAFPGA
TAF
KPGA 111726Z 1118/1218 VRB06KT P6SM FEW120 SCT200
     FM112000 29008KT P6SM SCT110
     FM120400 VRB06KT P6SM FEW150=

USA.gov is the U.S. government's official web portal to all federal, state and local government web resources and services.